User: anonymous   Login
Location: Unspecified
(0.0000°N, 0.0000°E)
Time: 22:19:07
(UTC+00:00)
Language:

SARAL - Orbit

View from above orbital plane
View from above orbital plane
View from above satellite
View from above satellite

Ground track
Ground track

The orbit data is extracted from the following two-line orbital elements,

1 39086U 13009A   17326.92124607 -.00000005 +00000-0 +14438-4 0  9999
2 39086 098.5381 152.0421 0001937 113.6914 246.4473 14.32016651247824
Epoch (UTC): 22 November 2017 22:06:35
Eccentricity: 0.0001937
inclination: 98.5381°
perigee height: 783 km
apogee height: 786 km
right ascension of ascending node: 152.0421°
argument of perigee: 113.6914°
revolutions per day: 14.32016651
mean anomaly at epoch: 246.4473°
orbit number at epoch: 24782

The dashed part of the orbit path shows where the satellite is in the earth's shadow,  

DLR